Location: Unspecified
(0.0000°N, 0.0000°E)
Time: 15:08:10
(UTC+00:00)

Altair - Pass Details

Date: 14 February 2023
Orbit: 1501 x 1682 km, 47.2° (Epoch: 19 March)

Event Time Altitude Azimuth Distance (km) Brightness Sun altitude
Exits shadow 03:25:19 18° 199° (SSW) 3,325 9.2 -40.9°
Drops below altitude 10° 03:28:34 10° 181° (S) 3,875 9.7 -40.1°
Sets 03:32:44 0° 166° (SSE) 4,833 10.5 -39.1°
